Location: Unspecified
(22.6800°N, 112.2000°E)
Time: 07:59:49
(UTC+08:00)

X-37B - Pass Details

Date: 25 June 2021
Orbit: 383 x 392 km, 45.0° (Epoch: 01 July)

Event Time Altitude Azimuth Distance (km) Brightness Sun altitude
Exits shadow 04:01:00 16° 127° (SE) 1,109 3.0 -21.8°
Drops below altitude 10° 04:01:44 10° 128° (SE) 1,399 3.5 -21.6°
Sets 04:03:48 0° 130° (SE) 2,252 4.6 -21.3°
